"Sample Date","Sample Time","Sample Value","Units","Flow Rate","Laser Status","Micron Size 0","Counts/Channel 0","Micron Size 1","Counts/Channel 1","Micron Size 2","Counts/Channel 2","Micron Size 3","Counts/Channel 3","Micron Size 4","Counts/Channel 4","Micron Size 5","Counts/Channel 5","Micron Size 6","Counts/Channel 6","Micron Size 7","Counts/Channel 7","Micron Size 8","Counts/Channel 8","Micron Size 9","Counts/Channel 9","Micron Size 10","Counts/Channel 10","Micron Size 11","Counts/Channel 11","Micron Size 12","Counts/Channel 12","Micron Size 13","Counts/Channel 13","Micron Size 14","Counts/Channel 14","Micron Size 15","Counts/Channel 15","Micron Size 16","Counts/Channel 16","Micron Size 17","Counts/Channel 17","Micron Size 18","Counts/Channel 18","Micron Size 19","Counts/Channel 19","Micron Size 20","Counts/Channel 20","Micron Size 21","Counts/Channel 21","Micron Size 22","Counts/Channel 22","Micron Size 23","Counts/Channel 23","Micron Size 24","Counts/Channel 24","Micron Size 25","Counts/Channel 25","Micron Size 26","Counts/Channel 26","Micron Size 27","Counts/Channel 27","Micron Size 28","Counts/Channel 28","Micron Size 29","Counts/Channel 29","Micron Size 30","Counts/Channel 30","Micron Size 31","Counts/Channel 31"
"03/04/08","07:00:04",53295.000,"cc",28319.477,1,0.100,46104.000,0.200,3107.000,0.300,1829.000,0.500,1833.000,1.000,422.000,5.000,0
"03/04/08","07:00:10",53773.000,"cc",28318.643,1,0.100,46227.000,0.200,3172.000,0.300,1950.000,0.500,1947.000,1.000,477.000,5.000,0
"03/04/08","07:00:16",52835.000,"cc",28238.729,1,0.100,46011.000,0.200,3026.000,0.300,1773.000,0.500,1707.000,1.000,318.000,5.000,0
"03/04/08","07:00:22",53649.000,"cc",28387.217,1,0.100,46179.000,0.200,3107.000,0.300,1865.000,0.500,2023.000,1.000,475.000,5.000,0
"03/04/08","07:00:28",53161.000,"cc",28289.898,1,0.100,46215.000,0.200,3027.000,0.300,1826.000,0.500,1766.000,1.000,327.000,5.000,0
"03/04/08","07:00:34",54118.000,"cc",28308.854,1,0.100,46774.000,0.200,3191.000,0.300,1901.000,0.500,1854.000,1.000,398.000,5.000,0
"03/04/08","07:00:40",53331.000,"cc",28330.957,1,0.100,46320.000,0.200,3054.000,0.300,1797.000,0.500,1784.000,1.000,376.000,5.000,0
"03/04/08","07:00:46",53201.000,"cc",28321.346,1,0.100,46267.000,0.200,2988.000,0.300,1740.000,0.500,1801.000,1.000,405.000,5.000,0
"03/04/08","07:00:52",52707.000,"cc",28296.690,1,0.100,45850.000,0.200,2972.000,0.300,1758.000,0.500,1748.000,1.000,379.000,5.000,0
"03/04/08","07:00:58",52846.000,"cc",28331.707,1,0.100,45971.000,0.200,2987.000,0.300,1681.000,0.500,1777.000,1.000,430.000,5.000,0
"03/04/08","07:01:04",52977.000,"cc",28349.600,1,0.100,45888.000,0.200,3024.000,0.300,1789.000,0.500,1864.000,1.000,412.000,5.000,0
"03/04/08","07:01:10",52555.000,"cc",28320.990,1,0.100,45687.000,0.200,2962.000,0.300,1748.000,0.500,1724.000,1.000,434.000,5.000,0
"03/04/08","07:01:16",55971.000,"cc",28298.065,1,0.100,46962.000,0.200,3844.000,0.300,2402.000,0.500,2224.000,1.000,539.000,5.000,0
"03/04/08","07:01:22",53260.000,"cc",28311.973,1,0.100,45848.000,0.200,3331.000,0.300,1766.000,0.500,1812.000,1.000,503.000,5.000,0
"03/04/08","07:01:28",53963.000,"cc",28362.152,1,0.100,46028.000,0.200,3384.000,0.300,2050.000,0.500,1989.000,1.000,512.000,5.000,0
"03/04/08","07:01:34",53043.000,"cc",28306.090,1,0.100,45727.000,0.200,3113.000,0.300,1784.000,0.500,1935.000,1.000,484.000,5.000,0
"03/04/08","07:01:40",55829.000,"cc",28348.152,1,0.100,48163.000,0.200,3486.000,0.300,1907.000,0.500,1853.000,1.000,420.000,5.000,0
"03/04/08","07:01:46",55718.000,"cc",28329.213,1,0.100,47463.000,0.200,3658.000,0.300,2017.000,0.500,2014.000,1.000,566.000,5.000,0
"03/04/08","07:01:52",52563.000,"cc",28287.008,1,0.100,45241.000,0.200,3290.000,0.300,1776.000,0.500,1821.000,1.000,435.000,5.000,0
"03/04/08","07:01:58",55061.000,"cc",28305.928,1,0.100,46199.000,0.200,3693.000,0.300,2250.000,0.500,2326.000,1.000,593.000,5.000,0
"03/04/08","07:02:04",52972.000,"cc",28342.574,1,0.100,45465.000,0.200,3194.000,0.300,1889.000,0.500,1909.000,1.000,515.000,5.000,0
"03/04/08","07:02:10",53977.000,"cc",28313.154,1,0.100,46244.000,0.200,3304.000,0.300,1939.000,0.500,1946.000,1.000,544.000,5.000,0
"03/04/08","07:02:16",52605.000,"cc",28315.447,1,0.100,45183.000,0.200,3125.000,0.300,1854.000,0.500,1965.000,1.000,478.000,5.000,0
"03/04/08","07:02:22",52106.000,"cc",28340.035,1,0.100,44859.000,0.200,2989.000,0.300,1770.000,0.500,1949.000,1.000,539.000,5.000,0
"03/04/08","07:02:28",52510.000,"cc",28287.709,1,0.100,44917.000,0.200,3185.000,0.300,1859.000,0.500,1975.000,1.000,574.000,5.000,0
"03/04/08","07:02:34",53402.000,"cc",28366.588,1,0.100,45563.000,0.200,3295.000,0.300,2007.000,0.500,2030.000,1.000,507.000,5.000,0
"03/04/08","07:02:40",52469.000,"cc",28312.377,1,0.100,44985.000,0.200,3167.000,0.300,1825.000,0.500,1996.000,1.000,496.000,5.000,0
"03/04/08","07:02:46",54289.000,"cc",28232.377,1,0.100,45889.000,0.200,3591.000,0.300,2177.000,0.500,2127.000,1.000,505.000,5.000,0
"03/04/08","07:02:52",53511.000,"cc",28319.783,1,0.100,45713.000,0.200,3315.000,0.300,1975.000,0.500,2009.000,1.000,499.000,5.000,0
"03/04/08","07:02:58",53574.000,"cc",28289.828,1,0.100,45974.000,0.200,3312.000,0.300,1922.000,0.500,1907.000,1.000,459.000,5.000,0
"03/04/08","07:03:04",52553.000,"cc",28291.822,1,0.100,45847.000,0.200,2967.000,0.300,1676.000,0.500,1705.000,1.000,358.000,5.000,0
"03/04/08","07:03:10",52264.000,"cc",28305.065,1,0.100,45595.000,0.200,3063.000,0.300,1715.000,0.500,1595.000,1.000,296.000,5.000,0
"03/04/08","07:03:16",52740.000,"cc",28354.383,1,0.100,45818.000,0.200,3134.000,0.300,1754.000,0.500,1717.000,1.000,317.000,5.000,0
"03/04/08","07:03:22",52073.000,"cc",28316.738,1,0.100,45871.000,0.200,3027.000,0.300,1534.000,0.500,1399.000,1.000,242.000,5.000,0
"03/04/08","07:03:28",53309.000,"cc",28271.918,1,0.100,46486.000,0.200,3266.000,0.300,1723.000,0.500,1529.000,1.000,305.000,5.000,0
"03/04/08","07:03:34",52388.000,"cc",28324.629,1,0.100,46128.000,0.200,2987.000,0.300,1646.000,0.500,1405.000,1.000,222.000,5.000,0
"03/04/08","07:03:40",52787.000,"cc",28291.822,1,0.100,46256.000,0.200,3118.000,0.300,1680.000,0.500,1476.000,1.000,257.000,5.000,0
"03/04/08","07:03:46",52978.000,"cc",28379.246,1,0.100,46111.000,0.200,3194.000,0.300,1782.000,0.500,1598.000,1.000,293.000,5.000,0
"03/04/08","07:03:52",51705.000,"cc",28323.611,1,0.100,45645.000,0.200,2965.000,0.300,1556.000,0.500,1342.000,1.000,197.000,5.000,0
"03/04/08","07:03:58",54121.000,"cc",28296.014,1,0.100,47036.000,0.200,3304.000,0.300,1907.000,0.500,1582.000,1.000,292.000,5.000,0
"03/04/08","07:04:04",52025.000,"cc",28305.045,1,0.100,45905.000,0.200,2970.000,0.300,1567.000,0.500,1370.000,1.000,213.000,5.000,0
"03/04/08","07:04:10",53855.000,"cc",28347.545,1,0.100,46489.000,0.200,3294.000,0.300,1929.000,0.500,1780.000,1.000,363.000,5.000,0
"03/04/08","07:04:16",53288.000,"cc",28319.762,1,0.100,46307.000,0.200,3187.000,0.300,1801.000,0.500,1657.000,1.000,336.000,5.000,0
"03/04/08","07:04:22",53504.000,"cc",28266.586,1,0.100,46227.000,0.200,3198.000,0.300,1928.000,0.500,1748.000,1.000,403.000,5.000,0
"03/04/08","07:04:28",53338.000,"cc",28343.568,1,0.100,45761.000,0.200,3288.000,0.300,1903.000,0.500,1925.000,1.000,461.000,5.000,0
"03/04/08","07:04:34",52368.000,"cc",28318.666,1,0.100,45406.000,0.200,3129.000,0.300,1695.000,0.500,1750.000,1.000,388.000,5.000,0
"03/04/08","07:04:40",51163.000,"cc",28319.359,1,0.100,44615.000,0.200,2812.000,0.300,1635.000,0.500,1751.000,1.000,350.000,5.000,0
"03/04/08","07:04:46",52662.000,"cc",28322.475,1,0.100,45118.000,0.200,3159.000,0.300,1889.000,0.500,1964.000,1.000,532.000,5.000,0
"03/04/08","07:04:52",52100.000,"cc",28284.430,1,0.100,45090.000,0.200,3018.000,0.300,1782.000,0.500,1782.000,1.000,428.000,5.000,0
"03/04/08","07:04:58",51912.000,"cc",28288.838,1,0.100,44995.000,0.200,3126.000,0.300,1671.000,0.500,1695.000,1.000,425.000,5.000,0
"03/04/08","07:05:04",52963.000,"cc",28319.672,1,0.100,45590.000,0.200,3174.000,0.300,1808.000,0.500,1921.000,1.000,470.000,5.000,0
"03/04/08","07:05:10",52583.000,"cc",28334.986,1,0.100,45064.000,0.200,3212.000,0.300,1913.000,0.500,1895.000,1.000,499.000,5.000,0
"03/04/08","07:05:16",52669.000,"cc",28305.049,1,0.100,45428.000,0.200,3141.000,0.300,1808.000,0.500,1832.000,1.000,460.000,5.000,0
"03/04/08","07:05:22",52570.000,"cc",28387.164,1,0.100,45310.000,0.200,3096.000,0.300,1869.000,0.500,1847.000,1.000,448.000,5.000,0
"03/04/08","07:05:28",51986.000,"cc",28368.641,1,0.100,45139.000,0.200,2909.000,0.300,1786.000,0.500,1754.000,1.000,398.000,5.000,0
"03/04/08","07:05:34",51914.000,"cc",28310.604,1,0.100,44641.000,0.200,3113.000,0.300,1810.000,0.500,1911.000,1.000,439.000,5.000,0
"03/04/08","07:05:40",52217.000,"cc",28315.799,1,0.100,45141.000,0.200,2957.000,0.300,1836.000,0.500,1829.000,1.000,454.000,5.000,0
"03/04/08","07:05:46",52058.000,"cc",28248.258,1,0.100,44956.000,0.200,3068.000,0.300,1774.000,0.500,1824.000,1.000,436.000,5.000,0
"03/04/08","07:05:52",53021.000,"cc",28308.363,1,0.100,45433.000,0.200,3183.000,0.300,1892.000,0.500,1985.000,1.000,528.000,5.000,0
"03/04/08","07:05:58",52461.000,"cc",28320.254,1,0.100,45290.000,0.200,3058.000,0.300,1794.000,0.500,1878.000,1.000,441.000,5.000,0
"03/04/08","07:06:04",53537.000,"cc",28286.635,1,0.100,45404.000,0.200,3415.000,0.300,2051.000,0.500,2176.000,1.000,491.000,5.000,0
"03/04/08","07:06:10",51990.000,"cc",28324.863,1,0.100,45217.000,0.200,2976.000,0.300,1638.000,0.500,1743.000,1.000,416.000,5.000,0
"03/04/08","07:06:16",52496.000,"cc",28393.252,1,0.100,45540.000,0.200,3027.000,0.300,1701.000,0.500,1799.000,1.000,429.000,5.000,0
"03/04/08","07:06:22",52421.000,"cc",28315.693,1,0.100,45330.000,0.200,3081.000,0.300,1716.000,0.500,1811.000,1.000,483.000,5.000,0
"03/04/08","07:06:28",51953.000,"cc",28301.930,1,0.100,45308.000,0.200,2948.000,0.300,1641.000,0.500,1672.000,1.000,384.000,5.000,0
"03/04/08","07:06:34",52848.000,"cc",28258.315,1,0.100,46073.000,0.200,3043.000,0.300,1675.000,0.500,1668.000,1.000,389.000,5.000,0
"03/04/08","07:06:40",52135.000,"cc",28386.971,1,0.100,45390.000,0.200,2939.000,0.300,1713.000,0.500,1714.000,1.000,379.000,5.000,0
"03/04/08","07:06:46",52079.000,"cc",28310.770,1,0.100,45241.000,0.200,2947.000,0.300,1789.000,0.500,1716.000,1.000,386.000,5.000,0
"03/04/08","07:06:52",52481.000,"cc",28322.246,1,0.100,45199.000,0.200,3096.000,0.300,1801.000,0.500,1928.000,1.000,457.000,5.000,0
"03/04/08","07:06:58",51972.000,"cc",28320.023,1,0.100,45432.000,0.200,2925.000,0.300,1575.000,0.500,1677.000,1.000,363.000,5.000,0
"03/04/08","07:07:04",52465.000,"cc",28283.949,1,0.100,45523.000,0.200,3026.000,0.300,1711.000,0.500,1783.000,1.000,422.000,5.000,0
"03/04/08","07:07:10",53646.000,"cc",28352.426,1,0.100,46034.000,0.200,3232.000,0.300,1900.000,0.500,2005.000,1.000,475.000,5.000,0
"03/04/08","07:07:16",52121.000,"cc",28343.936,1,0.100,45431.000,0.200,2938.000,0.300,1611.000,0.500,1724.000,1.000,417.000,5.000,0
"03/04/08","07:07:22",53484.000,"cc",28330.672,1,0.100,46002.000,0.200,3232.000,0.300,1941.000,0.500,1857.000,1.000,452.000,5.000,0
"03/04/08","07:07:28",51882.000,"cc",28312.100,1,0.100,45273.000,0.200,2849.000,0.300,1648.000,0.500,1700.000,1.000,412.000,5.000,0
"03/04/08","07:07:34",53342.000,"cc",28287.936,1,0.100,45866.000,0.200,3227.000,0.300,1850.000,0.500,1909.000,1.000,490.000,5.000,0
"03/04/08","07:07:40",54137.000,"cc",28283.356,1,0.100,46304.000,0.200,3305.000,0.300,2003.000,0.500,2002.000,1.000,523.000,5.000,0
"03/04/08","07:07:46",53010.000,"cc",28247.440,1,0.100,45616.000,0.200,3193.000,0.300,1766.000,0.500,1964.000,1.000,471.000,5.000,0
"03/04/08","07:07:52",55083.000,"cc",28368.385,1,0.100,46494.000,0.200,3669.000,0.300,2138.000,0.500,2215.000,1.000,567.000,5.000,0
"03/04/08","07:07:58",54638.000,"cc",28336.879,1,0.100,46610.000,0.200,3502.000,0.300,2105.000,0.500,1945.000,1.000,476.000,5.000,0
"03/04/08","07:08:04",54319.000,"cc",28302.145,1,0.100,46454.000,0.200,3359.000,0.300,2050.000,0.500,1999.000,1.000,457.000,5.000,0
"03/04/08","07:08:10",53961.000,"cc",28281.430,1,0.100,46524.000,0.200,3188.000,0.300,1867.000,0.500,1926.000,1.000,456.000,5.000,0
"03/04/08","07:08:16",55039.000,"cc",28377.533,1,0.100,46894.000,0.200,3613.000,0.300,2050.000,0.500,2051.000,1.000,431.000,5.000,0
"03/04/08","07:08:22",55403.000,"cc",28328.785,1,0.100,47010.000,0.200,3580.000,0.300,2155.000,0.500,2150.000,1.000,508.000,5.000,0
"03/04/08","07:08:28",55567.000,"cc",28302.613,1,0.100,46932.000,0.200,3614.000,0.300,2235.000,0.500,2194.000,1.000,592.000,5.000,0
"03/04/08","07:08:34",53256.000,"cc",28301.199,1,0.100,46134.000,0.200,3101.000,0.300,1817.000,0.500,1805.000,1.000,399.000,5.000,0
"03/04/08","07:08:40",52737.000,"cc",28325.303,1,0.100,45895.000,0.200,3077.000,0.300,1736.000,0.500,1706.000,1.000,323.000,5.000,0
"03/04/08","07:08:46",53590.000,"cc",28265.563,1,0.100,46209.000,0.200,3262.000,0.300,1835.000,0.500,1839.000,1.000,445.000,5.000,0
"03/04/08","07:08:52",53483.000,"cc",28284.350,1,0.100,46497.000,0.200,3108.000,0.300,1795.000,0.500,1741.000,1.000,342.000,5.000,0
"03/04/08","07:08:58",53221.000,"cc",28373.311,1,0.100,46768.000,0.200,3054.000,0.300,1666.000,0.500,1482.000,1.000,251.000,5.000,0
"03/04/08","07:09:04",53828.000,"cc",28332.611,1,0.100,46722.000,0.200,3259.000,0.300,1853.000,0.500,1663.000,1.000,331.000,5.000,0
"03/04/08","07:09:10",52724.000,"cc",28274.272,1,0.100,46378.000,0.200,3067.000,0.300,1598.000,0.500,1441.000,1.000,240.000,5.000,0
"03/04/08","07:09:16",53487.000,"cc",28316.162,1,0.100,46468.000,0.200,3223.000,0.300,1818.000,0.500,1675.000,1.000,303.000,5.000,0
"03/04/08","07:09:22",53102.000,"cc",28380.023,1,0.100,46703.000,0.200,3032.000,0.300,1643.000,0.500,1477.000,1.000,247.000,5.000,0
"03/04/08","07:09:28",53307.000,"cc",28342.457,1,0.100,46751.000,0.200,3082.000,0.300,1690.000,0.500,1491.000,1.000,293.000,5.000,0
"03/04/08","07:09:34",53488.000,"cc",28292.643,1,0.100,46493.000,0.200,3200.000,0.300,1775.000,0.500,1689.000,1.000,331.000,5.000,0
"03/04/08","07:09:40",52345.000,"cc",28260.057,1,0.100,45723.000,0.200,3083.000,0.300,1702.000,0.500,1552.000,1.000,285.000,5.000,0
"03/04/08","07:09:46",52960.000,"cc",28314.908,1,0.100,45966.000,0.200,3099.000,0.300,1818.000,0.500,1722.000,1.000,355.000,5.000,0
"03/04/08","07:09:52",53812.000,"cc",28353.096,1,0.100,45882.000,0.200,3474.000,0.300,2087.000,0.500,1923.000,1.000,446.000,5.000,0
"03/04/08","07:09:58",53605.000,"cc",28288.746,1,0.100,45779.000,0.200,3437.000,0.300,2006.000,0.500,1913.000,1.000,470.000,5.000,0
"03/04/08","07:10:04",55184.000,"cc",28306.043,1,0.100,46313.000,0.200,3994.000,0.300,2314.000,0.500,2090.000,1.000,473.000,5.000,0
"03/04/08","07:10:10",53691.000,"cc",28294.668,1,0.100,46027.000,0.200,3460.000,0.300,1863.000,0.500,1886.000,1.000,455.000,5.000,0
"03/04/08","07:10:16",54297.000,"cc",28342.475,1,0.100,46298.000,0.200,3598.000,0.300,1994.000,0.500,1940.000,1.000,467.000,5.000,0
"03/04/08","07:10:22",54486.000,"cc",28323.207,1,0.100,46442.000,0.200,3624.000,0.300,1964.000,0.500,1941.000,1.000,515.000,5.000,0
"03/04/08","07:10:28",53275.000,"cc",28303.613,1,0.100,45674.000,0.200,3323.000,0.300,2004.000,0.500,1795.000,1.000,479.000,5.000,0
"03/04/08","07:10:34",53152.000,"cc",28313.275,1,0.100,45675.000,0.200,3334.000,0.300,1879.000,0.500,1787.000,1.000,477.000,5.000,0
"03/04/08","07:10:40",53531.000,"cc",28350.965,1,0.100,46488.000,0.200,3180.000,0.300,1741.000,0.500,1771.000,1.000,351.000,5.000,0
"03/04/08","07:10:46",53871.000,"cc",28318.965,1,0.100,46459.000,0.200,3313.000,0.300,1866.000,0.500,1809.000,1.000,424.000,5.000,0
"03/04/08","07:10:52",54394.000,"cc",28324.629,1,0.100,46559.000,0.200,3439.000,0.300,1998.000,0.500,1924.000,1.000,474.000,5.000,0
"03/04/08","07:10:58",53476.000,"cc",28241.688,1,0.100,46782.000,0.200,3084.000,0.300,1725.000,0.500,1582.000,1.000,303.000,5.000,0
"03/04/08","07:11:04",54382.000,"cc",28325.240,1,0.100,47042.000,0.200,3400.000,0.300,1890.000,0.500,1683.000,1.000,367.000,5.000,0
"03/04/08","07:11:10",54098.000,"cc",28313.525,1,0.100,47298.000,0.200,3097.000,0.300,1749.000,0.500,1643.000,1.000,311.000,5.000,0
"03/04/08","07:11:16",55696.000,"cc",28393.994,1,0.100,47423.000,0.200,3591.000,0.300,2195.000,0.500,1974.000,1.000,513.000,5.000,0
"03/04/08","07:11:22",52833.000,"cc",28294.066,1,0.100,46114.000,0.200,3018.000,0.300,1668.000,0.500,1712.000,1.000,321.000,5.000,0
"03/04/08","07:11:28",53418.000,"cc",28337.068,1,0.100,46787.000,0.200,3062.000,0.300,1641.000,0.500,1611.000,1.000,317.000,5.000,0
"03/04/08","07:11:34",54196.000,"cc",28347.504,1,0.100,46950.000,0.200,3214.000,0.300,1823.000,0.500,1824.000,1.000,385.000,5.000,0
"03/04/08","07:11:40",53784.000,"cc",28267.596,1,0.100,46713.000,0.200,3218.000,0.300,1712.000,0.500,1783.000,1.000,358.000,5.000,0
"03/04/08","07:11:46",55166.000,"cc",28364.365,1,0.100,46794.000,0.200,3595.000,0.300,2099.000,0.500,2147.000,1.000,531.000,5.000,0
"03/04/08","07:11:52",53070.000,"cc",28327.154,1,0.100,46449.000,0.200,2951.000,0.300,1693.000,0.500,1644.000,1.000,333.000,5.000,0
"03/04/08","07:11:58",55304.000,"cc",28310.147,1,0.100,47112.000,0.200,3584.000,0.300,2178.000,0.500,1959.000,1.000,471.000,5.000,0
"03/04/08","07:12:04",53799.000,"cc",28265.619,1,0.100,46664.000,0.200,3150.000,0.300,1793.000,0.500,1799.000,1.000,393.000,5.000,0
"03/04/08","07:12:10",53592.000,"cc",28297.193,1,0.100,46593.000,0.200,3194.000,0.300,1722.000,0.500,1738.000,1.000,345.000,5.000,0
"03/04/08","07:12:16",53122.000,"cc",28321.391,1,0.100,46323.000,0.200,3031.000,0.300,1729.000,0.500,1690.000,1.000,349.000,5.000,0
"03/04/08","07:12:22",52948.000,"cc",28380.250,1,0.100,46042.000,0.200,3055.000,0.300,1771.000,0.500,1695.000,1.000,385.000,5.000,0
"03/04/08","07:12:28",53302.000,"cc",28309.965,1,0.100,46298.000,0.200,3124.000,0.300,1838.000,0.500,1680.000,1.000,362.000,5.000,0
"03/04/08","07:12:34",52603.000,"cc",28361.512,1,0.100,45579.000,0.200,3253.000,0.300,1739.000,0.500,1648.000,1.000,384.000,5.000,0
"03/04/08","07:12:40",52708.000,"cc",28263.906,1,0.100,45790.000,0.200,3185.000,0.300,1715.000,0.500,1631.000,1.000,387.000,5.000,0
"03/04/08","07:12:46",53060.000,"cc",28299.586,1,0.100,45986.000,0.200,3208.000,0.300,1751.000,0.500,1709.000,1.000,406.000,5.000,0
"03/04/08","07:12:52",53921.000,"cc",28367.070,1,0.100,46119.000,0.200,3430.000,0.300,2009.000,0.500,1908.000,1.000,455.000,5.000,0
"03/04/08","07:12:58",52548.000,"cc",28295.047,1,0.100,45861.000,0.200,3154.000,0.300,1598.000,0.500,1628.000,1.000,307.000,5.000,0
"03/04/08","07:13:04",53338.000,"cc",28277.877,1,0.100,46298.000,0.200,3228.000,0.300,1796.000,0.500,1656.000,1.000,360.000,5.000,0
"03/04/08","07:13:10",52889.000,"cc",28364.398,1,0.100,45439.000,0.200,3393.000,0.300,1873.000,0.500,1757.000,1.000,427.000,5.000,0
"03/04/08","07:13:16",53034.000,"cc",28230.703,1,0.100,45788.000,0.200,3378.000,0.300,1764.000,0.500,1711.000,1.000,393.000,5.000,0
"03/04/08","07:13:22",52467.000,"cc",28334.697,1,0.100,45540.000,0.200,3164.000,0.300,1739.000,0.500,1685.000,1.000,339.000,5.000,0
"03/04/08","07:13:28",53338.000,"cc",28286.381,1,0.100,45633.000,0.200,3567.000,0.300,1935.000,0.500,1748.000,1.000,455.000,5.000,0
"03/04/08","07:13:34",51773.000,"cc",28325.621,1,0.100,44938.000,0.200,3215.000,0.300,1639.000,0.500,1603.000,1.000,378.000,5.000,0
"03/04/08","07:13:40",52680.000,"cc",28322.104,1,0.100,45336.000,0.200,3465.000,0.300,1812.000,0.500,1679.000,1.000,388.000,5.000,0
"03/04/08","07:13:46",51270.000,"cc",28364.307,1,0.100,44870.000,0.200,2972.000,0.300,1559.000,0.500,1473.000,1.000,396.000,5.000,0
"03/04/08","07:13:52",51073.000,"cc",28302.623,1,0.100,44518.000,0.200,2919.000,0.300,1618.000,0.500,1616.000,1.000,402.000,5.000,0
"03/04/08","07:13:58",51524.000,"cc",28329.967,1,0.100,44825.000,0.200,3047.000,0.300,1594.000,0.500,1624.000,1.000,434.000,5.000,0
"03/04/08","07:14:04",52975.000,"cc",28288.512,1,0.100,45176.000,0.200,3580.000,0.300,1880.000,0.500,1853.000,1.000,486.000,5.000,0
"03/04/08","07:14:10",54036.000,"cc",28318.174,1,0.100,45680.000,0.200,3825.000,0.300,2126.000,0.500,1926.000,1.000,479.000,5.000,0
"03/04/08","07:14:16",52118.000,"cc",28304.424,1,0.100,44803.000,0.200,3316.000,0.300,1800.000,0.500,1756.000,1.000,443.000,5.000,0
"03/04/08","07:14:22",51706.000,"cc",28309.176,1,0.100,44398.000,0.200,3228.000,0.300,1826.000,0.500,1795.000,1.000,459.000,5.000,0
"03/04/08","07:14:28",52077.000,"cc",28391.234,1,0.100,44422.000,0.200,3557.000,0.300,1924.000,0.500,1694.000,1.000,480.000,5.000,0
"03/04/08","07:14:34",51081.000,"cc",28299.381,1,0.100,44359.000,0.200,3078.000,0.300,1623.000,0.500,1646.000,1.000,375.000,5.000,0
"03/04/08","07:14:40",52901.000,"cc",28254.164,1,0.100,44845.000,0.200,3594.000,0.300,1996.000,0.500,1949.000,1.000,517.000,5.000,0
"03/04/08","07:14:46",51211.000,"cc",28338.609,1,0.100,44786.000,0.200,2945.000,0.300,1557.000,0.500,1566.000,1.000,357.000,5.000,0
"03/04/08","07:14:52",51891.000,"cc",28327.193,1,0.100,45248.000,0.200,3010.000,0.300,1623.000,0.500,1632.000,1.000,378.000,5.000,0
"03/04/08","07:14:58",52776.000,"cc",28337.898,1,0.100,45942.000,0.200,3177.000,0.300,1722.000,0.500,1600.000,1.000,335.000,5.000,0
"03/04/08","07:15:04",53357.000,"cc",28298.992,1,0.100,46796.000,0.200,3041.000,0.300,1661.000,0.500,1587.000,1.000,272.000,5.000,0
"03/04/08","07:15:10",53547.000,"cc",28347.133,1,0.100,46992.000,0.200,3123.000,0.300,1620.000,0.500,1530.000,1.000,282.000,5.000,0
"03/04/08","07:15:16",52981.000,"cc",28277.076,1,0.100,46416.000,0.200,3046.000,0.300,1713.000,0.500,1527.000,1.000,279.000,5.000,0
"03/04/08","07:15:22",53606.000,"cc",28337.107,1,0.100,46674.000,0.200,3227.000,0.300,1708.000,0.500,1682.000,1.000,315.000,5.000,0
"03/04/08","07:15:28",53298.000,"cc",28280.531,1,0.100,46749.000,0.200,3151.000,0.300,1612.000,0.500,1522.000,1.000,264.000,5.000,0
"03/04/08","07:15:34",53832.000,"cc",28338.799,1,0.100,46875.000,0.200,3230.000,0.300,1788.000,0.500,1636.000,1.000,303.000,5.000,0
"03/04/08","07:15:40",52953.000,"cc",28303.063,1,0.100,46423.000,0.200,3024.000,0.300,1656.000,0.500,1531.000,1.000,319.000,5.000,0
"03/04/08","07:15:46",53019.000,"cc",28262.313,1,0.100,46582.000,0.200,3123.000,0.300,1498.000,0.500,1528.000,1.000,288.000,5.000,0
"03/04/08","07:15:52",52738.000,"cc",28351.168,1,0.100,46466.000,0.200,3001.000,0.300,1522.000,0.500,1487.000,1.000,262.000,5.000,0
"03/04/08","07:15:58",52487.000,"cc",28337.377,1,0.100,46281.000,0.200,2964.000,0.300,1527.000,0.500,1456.000,1.000,259.000,5.000,0
"03/04/08","07:16:04",52906.000,"cc",28360.291,1,0.100,46340.000,0.200,3027.000,0.300,1584.000,0.500,1632.000,1.000,323.000,5.000,0
"03/04/08","07:16:10",52366.000,"cc",28287.617,1,0.100,45969.000,0.200,3041.000,0.300,1569.000,0.500,1501.000,1.000,286.000,5.000,0
"03/04/08","07:16:16",52982.000,"cc",28305.498,1,0.100,46295.000,0.200,3038.000,0.300,1607.000,0.500,1693.000,1.000,349.000,5.000,0
"03/04/08","07:16:22",52733.000,"cc",28312.984,1,0.100,46198.000,0.200,3046.000,0.300,1687.000,0.500,1508.000,1.000,294.000,5.000,0
"03/04/08","07:16:28",53785.000,"cc",28336.338,1,0.100,47043.000,0.200,3265.000,0.300,1662.000,0.500,1551.000,1.000,264.000,5.000,0
"03/04/08","07:16:34",52790.000,"cc",28365.729,1,0.100,46582.000,0.200,3096.000,0.300,1526.000,0.500,1341.000,1.000,245.000,5.000,0
"03/04/08","07:16:40",53310.000,"cc",28248.856,1,0.100,46823.000,0.200,3131.000,0.300,1677.000,0.500,1391.000,1.000,288.000,5.000,0
"03/04/08","07:16:46",53865.000,"cc",28296.451,1,0.100,46939.000,0.200,3243.000,0.300,1721.000,0.500,1658.000,1.000,304.000,5.000,0
"03/04/08","07:16:52",53695.000,"cc",28294.107,1,0.100,46738.000,0.200,3349.000,0.300,1684.000,0.500,1630.000,1.000,294.000,5.000,0
"03/04/08","07:16:58",53248.000,"cc",28245.195,1,0.100,46337.000,0.200,3211.000,0.300,1706.000,0.500,1622.000,1.000,372.000,5.000,0
"03/04/08","07:17:04",53354.000,"cc",28383.965,1,0.100,46398.000,0.200,3167.000,0.300,1744.000,0.500,1697.000,1.000,348.000,5.000,0